Windsor Locks, CT

3:02 PM EST on February 25, 2017 (GMT -0500)
Bradley International

Weather History for KBDL - December, 2013

Change the Weather History Date:

Thursday, December 26, 2013

  Actual Average Record
Temperature  
Mean Temperature 26 °F 28 °F  
Max Temperature 31 °F 37 °F 61 °F (1982)
Min Temperature 20 °F 20 °F -14 °F (1980)
Degree Days  
Heating Degree Days 39 37  
Month to date heating degree days 883 849  
Since 1 July heating degree days 2115 2056  
Cooling Degree Days 0 0  
Month to date cooling degree days 0 0  
Year to date cooling degree days 894 756  
Moisture  
Dew Point 18 °F    
Average Humidity 77    
Maximum Humidity 92    
Minimum Humidity 62    
Precipitation  
Precipitation 0.02 in 0.11 in 2.02 in (1969)
Month to date precipitation 2.75 2.95  
Year to date precipitation 50.54 45.36  
Snow  
Snow 0.30 in 0.30 in 13.80 in (1947)
Month to date snowfall 12.7 5.8  
Since 1 July snowfall 12.7 7.8  
Snow Depth 0.00 in    
Sea Level Pressure  
Sea Level Pressure 30.26 in    
Wind  
Wind Speed 4 mph (SW)    
Max Wind Speed 12 mph    
Max Gust Speed 13 mph    
Visibility 8 miles    
Events Snow    
T = Trace of Precipitation, MM = Missing Value Source: NWS Daily Summary

Daily Weather History Graph

Daily Weather History Graph

Search for Another Location

Airport or City:

Trip Planner

Search our weather history database for the weather conditions in past years. The results will help you decide how hot, cold, wet, or windy it might be!

Date:

Astronomy

Dec. 26, 2013 Rise Set
Actual Time 7:17 AM EST 4:25 PM EST
Civil Twilight 6:45 AM EST 4:57 PM EST
Nautical Twilight 6:10 AM EST 5:32 PM EST
Astronomical Twilight 5:36 AM EST 6:06 PM EST
Moon 12:38 AM EST (12/26) 12:03 PM EST (12/26)
Length of Visible Light 10h 11m
Length of Day
9h 08m
Last Quarter, 38% of the Moon is Illuminated
Dec 26
Last Quarter
Jan 1
New
Jan 7
First Quarter
Jan 15
Full
Jan 24
Last Quarter

Hourly Weather History & Observations

Time (EST) Temp. Windchill Dew Point Humidity Pressure Visibility Wind Dir Wind Speed Gust Speed Precip Events Conditions
12:51 AM 19.9 °F - 14.0 °F 78% 30.45 in 10.0 mi Calm Calm - N/A   Mostly Cloudy
1:23 AM 19.4 °F - 12.2 °F 74% 30.44 in 10.0 mi Calm Calm - N/A   Mostly Cloudy
1:51 AM 19.9 °F - 12.9 °F 74% 30.45 in 10.0 mi Calm Calm - N/A   Mostly Cloudy
2:34 AM 21.2 °F 16.4 °F 12.2 °F 68% 30.43 in 10.0 mi NNE 3.5 mph - N/A   Mostly Cloudy
2:51 AM 21.0 °F - 12.0 °F 68% 30.44 in 10.0 mi Calm Calm - N/A   Mostly Cloudy
3:51 AM 21.0 °F 16.2 °F 10.9 °F 65% 30.41 in 10.0 mi NNE 3.5 mph - N/A   Mostly Cloudy
4:51 AM 19.9 °F 14.9 °F 12.0 °F 71% 30.37 in 10.0 mi NNE 3.5 mph - N/A   Mostly Cloudy
5:51 AM 21.0 °F - 10.9 °F 65% 30.36 in 10.0 mi Calm Calm - N/A   Mostly Cloudy
6:51 AM 21.0 °F 13.4 °F 10.9 °F 65% 30.34 in 10.0 mi North 5.8 mph - N/A   Mostly Cloudy
7:51 AM 21.9 °F 14.5 °F 12.0 °F 66% 30.32 in 10.0 mi North 5.8 mph - N/A   Overcast
8:51 AM 23.0 °F 18.4 °F 12.0 °F 63% 30.32 in 10.0 mi North 3.5 mph - N/A   Overcast
9:51 AM 24.1 °F - 14.0 °F 65% 30.30 in 10.0 mi Calm Calm - N/A   Overcast
10:51 AM 25.0 °F - 15.1 °F 66% 30.24 in 10.0 mi Calm Calm - N/A   Overcast
11:51 AM 26.1 °F 16.8 °F 18.0 °F 71% 30.20 in 3.0 mi West 9.2 mph - 0.00 in Snow Light Snow
12:05 PM 26.6 °F 17.5 °F 19.4 °F 74% 30.18 in 2.0 mi WNW 9.2 mph - 0.00 in Snow Light Snow
12:10 PM 26.6 °F 17.5 °F 19.4 °F 74% 30.18 in 1.5 mi West 9.2 mph - 0.00 in Snow Light Snow
12:31 PM 26.6 °F 21.2 °F 21.2 °F 80% 30.17 in 0.8 mi WSW 4.6 mph - 0.00 in Snow Light Snow
12:51 PM 26.1 °F 21.9 °F 24.1 °F 92% 30.17 in 0.8 mi WSW 3.5 mph - 0.01 in Snow Light Snow
1:20 PM 26.6 °F 20.0 °F 24.8 °F 93% 30.14 in 0.8 mi SE 5.8 mph - 0.01 in Snow Light Snow
1:28 PM 26.6 °F 20.0 °F 24.8 °F 93% 30.13 in 3.0 mi SSE 5.8 mph - 0.01 in Snow Light Snow
1:35 PM 28.4 °F 22.2 °F 24.8 °F 86% 30.13 in 2.0 mi SE 5.8 mph - 0.01 in Snow Light Snow
1:44 PM 28.4 °F 23.3 °F 24.8 °F 86% 30.12 in 4.0 mi SSE 4.6 mph - 0.01 in Snow Light Snow
1:51 PM 28.0 °F 22.8 °F 25.0 °F 88% 30.13 in 5.0 mi SSE 4.6 mph - 0.01 in   Mostly Cloudy
2:51 PM 30.0 °F 24.1 °F 26.1 °F 85% 30.12 in 10.0 mi South 5.8 mph - N/A   Mostly Cloudy
3:51 PM 30.0 °F 22.4 °F 26.1 °F 85% 30.13 in 8.0 mi South 8.1 mph - 0.00 in   Mostly Cloudy
4:51 PM 30.0 °F 21.7 °F 21.9 °F 72% 30.15 in 10.0 mi WSW 9.2 mph - N/A   Scattered Clouds
5:51 PM 28.9 °F 23.9 °F 21.0 °F 72% 30.18 in 10.0 mi SW 4.6 mph - N/A   Scattered Clouds
6:51 PM 27.0 °F 21.6 °F 21.0 °F 78% 30.22 in 10.0 mi South 4.6 mph - N/A   Partly Cloudy
7:51 PM 25.0 °F 20.7 °F 19.9 °F 81% 30.22 in 10.0 mi West 3.5 mph - N/A   Partly Cloudy
8:51 PM 25.0 °F 15.5 °F 19.9 °F 81% 30.22 in 10.0 mi West 9.2 mph - N/A   Clear
9:51 PM 24.1 °F 15.2 °F 19.0 °F 81% 30.22 in 10.0 mi West 8.1 mph - N/A   Clear
10:51 PM 25.0 °F 18.1 °F 19.9 °F 81% 30.24 in 10.0 mi West 5.8 mph - N/A   Clear
11:51 PM 26.1 °F 20.5 °F 18.0 °F 71% 30.23 in 10.0 mi SSE 4.6 mph - N/A   Clear